Simultaneous Nadir Overpasses (SNOs) Predictions

Prediction of SNOs between GOES-16 and FY3D Satellite Orbit:

Table of predicted SNOs for the next 14.0 days since TLE Epoch: 7/16/2022
Index Date Time (GOES-16) GOES-16 Lat,Lon FY3D Lat,Lon Distance(km) Time Diff (sec)
1 07/16/2022 07:03:04 0.04, -75.20 0.58, -77.70 284.96 80
2 07/17/2022 06:41:58 0.04, -75.20 -0.38, -73.23 223.70 80
3 07/18/2022 19:04:26 -0.04, -75.21 -0.80, -78.65 391.80 80
4 07/19/2022 18:48:41 -0.04, -75.22 0.21, -74.20 117.51 80
5 07/21/2022 07:10:59 0.03, -75.24 1.02, -79.56 493.14 80
6 07/22/2022 06:49:54 0.03, -75.25 0.00, -75.11 16.28 80
7 07/24/2022 18:53:56 -0.02, -75.29 -0.23, -76.06 88.93 80
8 07/25/2022 18:38:12 0.02, -75.30 0.85, -71.62 419.92 80
9 07/27/2022 07:00:30 -0.02, -75.33 0.37, -76.99 189.54 80
10 07/28/2022 06:39:25 -0.02, -75.35 -0.65, -72.54 320.62 80
11 07/29/2022 19:01:53 0.01, -75.37 -0.54, -77.95 293.15 80
